Погода в Конаке

Турция     38°25′11″N   27°07′39″E
темп.,
°C
ветер,
м/с
пор.,
м/с
влажн.,
%
обл.,
%
осадки,
мм/ч
давл.,
гПа
погр.,
м
13 мая, чт
чт1300:00+17ю233621 0.0 100987
03:00+15ююв22350 0.0 100935
06:00+14ююв22382 0.0 100825
09:00+20ю342813 0.0 1009446
12:00+23ю56300 0.0 10091359
15:00+25ю67270 0.0 10091444
18:00+22ю69370 0.0 10101201
21:00+18ююв46470 0.0 1011399
14 мая, пт
пт1400:00+16ю34520 0.0 1011294
03:00+15ююв33670 0.0 101181
06:00+14ююв22690 0.0 101255
09:00+19ю34430 0.0 1013632
12:00+23ю57360 0.0 10131393
15:00+25юз57340 0.0 10131665
18:00+23юз44380 0.0 10131374
21:00+18ю22585 0.0 1014212
15 мая, сб
сб1500:00+16ю11580 0.0 101484
03:00+15юв215797 0.0 101326
06:00+14в11560 0.0 101312
09:00+20юв12364 0.0 1012393
12:00+25ююз3422100 0.0 10111443
15:00+27зюз4521100 0.0 10102052
18:00+25зюз4426100 0.0 10091478
21:00+19юз2250100 0.0 1009209
16 мая, вс
вс1600:00+16ююз226488 0.0 1009132
03:00+17ю116328 0.0 1009127
06:00+14зюз01738 0.0 100874
09:00+19зсз21553 0.0 1008696
12:00+22з434211 0.0 10081777
15:00+23зсз65380 0.0 10071738
18:00+20зсз56420 0.0 10071135
21:00+16зсз23570 0.0 1008232
17 мая, пн
пн1700:00+15з126812 0.0 1009132
03:00+14з11765 0.0 101092
06:00+14с11734 0.0 101026
09:00+19ссв11480 0.0 1011516
12:00+24сз22367 0.0 10111550
15:00+26з53330 0.0 10101913
18:00+25з44322 0.0 10101284
21:00+20зюз22470 0.0 1012147